#timestamp,LO_Frequency,Hit,StdDev 
1618322415.1,286046996.7,N
1618322416.0,286046996.7,N
1618322435.8,286046999.4,N
1618322455.6,286046998.3,N
1618322475.5,286047001.2,N
1618322495.3,286046999.9,N
1618322515.2,286046999.1,N
1618322535.9,286046999.1,N
1618322555.7,286046999.0,N
1618322575.6,286046996.7,N
1618322595.4,286047001.5,N
1618322615.3,286047001.9,N
1618322635.1,286047001.9,N
1618322636.0,286047001.9,N
1618322655.8,286047001.6,N
1618322675.7,286046999.8,N
1618322695.5,286047001.1,N
1618322715.3,286046998.2,N
1618322735.2,286046999.0,N
1618322755.0,286046998.4,N
1618322755.9,286046998.4,N
1618322775.8,286046998.1,N
1618322795.6,286046998.2,N
1618322815.4,286046998.6,N
1618322835.3,286046998.9,N
1618322855.1,286046996.6,N
1618322875.9,286046997.1,N
1618322895.7,286046996.7,N
1618322915.5,286046998.7,N
1618322935.4,286046998.9,N
1618322955.2,286046998.6,N
1618322975.0,286046998.4,N
1618322975.9,286046998.4,N
1618322995.8,286047004.3,N
1618323015.6,286047003.3,N
1618323035.5,286047004.7,N
1618323055.3,286047007.1,Y
1618323075.1,286047008.9,P
1618323095.9,286047004.6,N
1618323115.7,286047003.1,N
1618323135.6,286047003.5,N
1618323155.4,286047005.5,N
1618323175.2,286047003.8,N
1618323195.1,286047002.0,N
1618323196.0,286047002.0,N
1618323215.8,286046999.9,N
1618323235.6,286047000.0,N
1618323255.5,286047002.2,N
1618323275.3,286047003.4,N
1618323295.2,286047003.8,N
1618323315.9,286047002.8,N
1618323335.7,286046998.7,N
1618323355.6,286047000.1,N
1618323375.4,286047001.0,N
1618323395.2,286046998.6,N
1618323415.1,286046998.3,N
1618323416.0,286046998.3,N
1618323435.8,286046999.6,N
1618323455.7,286047001.2,N
1618323475.5,286047002.5,N
1618323495.3,286046999.7,N
1618323515.2,286046998.6,N
1618323535.0,286046998.9,N
1618323535.9,286046998.9,N
1618323555.7,286047000.3,N
1618323575.6,286047000.9,N
1618323595.4,286046998.6,N
1618323615.3,286046999.9,N
1618323635.1,286047001.2,N
1618323655.9,286046998.6,N
1618323675.7,286046996.8,N
1618323695.5,286046997.2,N
1618323715.4,286046995.0,N
1618323735.2,286046993.3,Y
1618323755.0,286046996.0,P
1618323755.9,286046996.0,N
1618323775.8,286046995.7,N
1618323795.6,286046997.1,N
1618323815.5,286046998.0,N
1618323835.3,286046996.2,N
1618323855.1,286046995.8,N
1618323875.9,286046992.6,Y
1618323895.7,286046995.7,P
1618323915.6,286046993.3,P
1618323935.4,286046997.7,N
1618323955.2,286046995.4,N
1618323975.1,286046998.0,N
1618323976.0,286046998.0,N
1618323995.8,286046996.4,N
1618324015.7,286046997.7,N
1618324035.5,286047000.7,N
1618324055.3,286047000.8,N
1618324075.2,286046998.5,N
1618324095.0,286047000.8,N
1618324095.9,286047000.8,N
1618324115.7,286047000.4,N
1618324135.6,286047002.5,N
1618324155.4,286046999.2,N
1618324175.3,286046998.0,N
1618324195.1,286046997.6,N
1618324196.0,286046997.6,N
1618324215.8,286046997.3,N
1618324235.7,286046996.9,N
1618324255.5,286046995.2,N
1618324275.3,286046995.6,N
1618324295.2,286046992.1,Y
1618324315.0,286046994.9,P
1618324315.9,286046994.9,P
1618324335.8,286046997.9,N
1618324355.6,286046997.5,N
1618324375.4,286046999.3,N
1618324395.3,286047000.8,N
1618324415.1,286047000.2,N
1618324435.9,286047001.0,N
1618324455.7,286047002.0,N
1618324475.5,286047004.2,N
1618324495.4,286047002.7,N
1618324515.2,286047000.3,N
1618324535.0,286047000.7,N
1618324535.9,286047000.7,N
1618324555.8,286047000.8,N
1618324575.6,286046999.0,N
1618324595.5,286046998.5,N
1618324615.3,286047000.4,N
1618324635.1,286047000.7,N
1618324655.9,286047000.0,N
1618324675.7,286046998.2,N
1618324695.5,286047000.8,N
1618324715.4,286046999.8,N
1618324735.2,286047000.0,N
1618324755.1,286046998.5,N
1618324756.0,286046998.5,N
1618324775.8,286047002.0,N
1618324795.6,286046999.7,N
1618324815.5,286046998.1,N
1618324835.3,286046996.5,N
1618324855.1,286047000.9,N
1618324875.9,286047000.9,N
1618324895.7,286047000.6,N
1618324915.6,286047001.1,N
1618324935.4,286047000.9,N
1618324955.2,286046999.3,N
1618324975.1,286046999.0,N
1618324976.0,286046999.0,N
1618324995.8,286047001.1,N
1618325015.7,286047001.0,N
1618325035.5,286047001.0,N
1618325055.3,286047000.5,N
1618325075.2,286046998.8,N
1618325095.0,286046998.9,N
1618325095.9,286046998.9,N
1618325115.7,286046997.0,N
1618325135.6,286046999.4,N
1618325155.4,286046998.6,N
1618325175.3,286046999.0,N
1618325195.1,286047000.8,N
1618325215.8,286047002.8,N
1618325235.7,286047002.1,N
1618325255.5,286047001.4,N
1618325275.4,286047000.4,N
1618325295.2,286047000.4,N
1618325315.0,286046998.2,N
1618325315.9,286046998.2,N
1618325335.8,286046998.3,N
1618325355.6,286046998.7,N
1618325375.4,286047001.0,N
1618325395.3,286047000.8,N
1618325415.1,286047000.2,N
1618325435.9,286047001.0,N
1618325455.7,286046998.4,N
1618325475.5,286047001.2,N
1618325495.4,286046998.1,N
1618325515.2,286047000.5,N
1618325535.0,286046998.8,N
1618325535.9,286046998.8,N
1618325555.8,286046999.2,N
1618325575.6,286047000.6,N
1618325595.5,286047002.4,N
1618325615.3,286047002.6,N
1618325635.1,286047001.6,N
1618325655.9,286047000.3,N
1618325675.7,286047002.1,N
1618325695.5,286046999.8,N
1618325715.4,286046999.8,N
1618325735.2,286047000.1,N
1618325755.1,286047000.7,N
1618325756.0,286047000.7,N
1618325775.8,286047001.0,N
1618325795.6,286047000.5,N
1618325815.5,286047002.7,N
1618325835.3,286046999.9,N
1618325855.1,286047003.9,N
1618325875.9,286047005.5,Y
1618325895.7,286047003.5,P
1618325915.6,286047001.7,N
1618325935.4,286047002.2,N
1618325955.2,286047002.0,N
1618325975.1,286047002.0,N
1618325976.0,286047002.0,N
1618325995.8,286047001.7,N
